Flag for Norway Weather past 2 weeks in Lillesand, Norway

Now
56 °F

Cool.


Feels Like: 56 °F
Forecast: 46 / 63 °F
Wind: 1 mph from East

Location: Kristiansand / Kjevik

Current Time: Aug 28, 2014 at 10:12:58 AM

Latest Report: Aug 28, 2014 at 9:00 AM


Visibility: N/A

Pressure: 29.98 "Hg

Humidity: 91%

Dew point: 54 °F

Location of LillesandLocation

Historic Weather in Lillesand — Graph

°F

Lillesand temperature yesterday

Maximum temperature yesterday: 66 °F (at 6:00 PM)
Minimum temperature yesterday: 46 °F (at 7:00 AM)
Average temperature yesterday: 58 °F

Past Weeks' High & Low Weather Summary

 TemperatureHumidityPressure
High70 °F (Aug 19, 4:00 PM)100% (Aug 15, 5:00 AM)29.98 "Hg (Aug 15, 5:00 AM)
Low44 °F (Aug 18, 6:00 AM)40% (Aug 16, 4:00 PM)29.18 "Hg (Aug 18, 2:00 PM)
Average57 °F77%29.60 "Hg
* Reported Aug 13 8:00 AM — Aug 28 8:00 AM, Lillesand, Weather by CustomWeather, © 2014

Note: Actual official high and low records may vary slightly from our data, if they occured in-between our weather recording intervals... More about our weather records

Advertising

Lillesand weather history for previous 24 hours

 ConditionsComfort  
Time TempWeatherWind HumidityBarometerVisibility
8:00 AM
Aug 28
53 °FCool.1 mph96%29.98 "HgN/A
7:00 AM49 °FCool.3 mph97%29.96 "HgN/A
6:00 AM48 °FCool.2 mph97%29.96 "HgN/A
5:00 AM48 °FCool.2 mph97%29.96 "HgN/A
4:00 AM48 °FCool.3 mph97%29.96 "HgN/A
3:00 AM48 °FCool.2 mph97%29.95 "HgN/A
2:00 AM50 °FCool.1 mph96%29.95 "HgN/A
1:00 AM51 °FCool.2 mph94%29.94 "HgN/A
12:00 AM53 °FCool.1 mph90%29.94 "HgN/A
11:00 PM
Aug 27
58 °FCool.1 mph79%29.94 "HgN/A
10:00 PM60 °FCool.3 mph71%29.94 "HgN/A
9:00 PM62 °FCool.2 mph66%29.93 "HgN/A
8:00 PM65 °FMild.5 mph70%29.92 "HgN/A
7:00 PM65 °FMild.6 mph74%29.93 "HgN/A
6:00 PM66 °FMild.6 mph73%29.93 "HgN/A
5:00 PM65 °FMild.8 mph73%29.94 "HgN/A
4:00 PM65 °FMild.8 mph68%29.96 "HgN/A
3:00 PM65 °FMild.7 mph66%29.97 "HgN/A
2:00 PM65 °FMild.6 mph64%29.97 "HgN/A
1:00 PM64 °FMild.6 mph62%29.97 "HgN/A
11:00 AM63 °FMild.2 mph62%29.97 "HgN/A
10:00 AM62 °FCool.1 mph74%29.97 "HgN/A
Weather by CustomWeather, © 2014

See weather overviewHow to use our weather pages